Location: Perugia
(43.1330°N, 12.3670°E)
Time: 05:21:09
(UTC+01:00)

ISS - Pass Details

Date: 27 January 2021
Orbit: 417 x 422 km, 51.6° (Epoch: 08 March)

Event Time Altitude Azimuth Distance (km) Brightness Sun altitude
Rises 17:59:21 0° 281° (W) 2,369 1.3 -8.2°
Reaches altitude 10° 18:01:48 10° 298° (WNW) 1,507 -0.2 -8.6°
Maximum altitude 18:04:28 21° 350° (N) 1,008 -1.9 -9.0°
Drops below altitude 10° 18:07:08 10° 42° (NE) 1,510 -1.5 -9.5°
Enters shadow 18:07:08 10° 42° (NE) 1,511 -1.4 -9.5°
